Weather History for Columbia Airport, CA

Change the Weather History Date:

Friday, August 2, 2013

  Actual Average (KMOD) Record (KMOD)
Temperature  
Mean Temperature 70 °F -  
Max Temperature 89 °F 95 °F 104 °F (1980)
Min Temperature 50 °F 63 °F 49 °F (1944)
Degree Days  
Heating Degree Days 0 0  
Month to date heating degree days 0  
Since 1 June heating degree days 3  
Since 1 July heating degree days 0  
Cooling Degree Days 4 14  
Month to date cooling degree days 28  
Year to date cooling degree days 963  
Since 1 June cooling degree days 764  
Growing Degree Days 20 (Base 50)    
Moisture  
Dew Point 35 °F    
Average Humidity 33    
Maximum Humidity 58    
Minimum Humidity 13    
Precipitation  
Precipitation 0.00 in 0.00 in 0.00 in (2014)
Month to date precipitation 0.00  
Year to date precipitation 8.75  
Since 1 July precipitation T  
Snow  
Snow 0.00 in - - ()
Month to date snowfall  
Since 1 June snowfall  
Since 1 July snowfall  
Snow Depth -    
Sea Level Pressure  
Sea Level Pressure 29.96 in    
Wind  
Wind Speed 2 mph (WSW)    
Max Wind Speed 10 mph    
Max Gust Speed 17 mph    
Visibility 10 miles    
Events      
T = Trace of Precipitation, MM = Missing Value Source: NWS Daily Summary

Daily Weather History Graph

Daily Weather History Graph

Search for Another Location

Airport:

Trip Planner

Search our weather history database for the weather conditions in past years. The results will help you decide how hot, cold, wet, or windy it might be!

Date:

Astronomy

Aug. 02, 2013 Rise Set
Actual Time 6:05 AM PDT 8:09 PM PDT
Civil Twilight 5:36 AM PDT 8:38 PM PDT
Nautical Twilight 5:01 AM PDT 9:13 PM PDT
Astronomical Twilight 4:22 AM PDT 9:52 PM PDT
Moon 2:31 AM PDT (8/2) 5:10 PM PDT (8/2)
Length of Visible Light 15h 01m
Length of Day
14h 03m
Waning Crescent, 15% of the Moon is Illuminated
Aug 2
Waning Crescent
Aug 6
New
Aug 14
First Quarter
Aug 20
Full
Aug 28
Last Quarter

Hourly Weather History & Observations

Time (PDT) Temp. Dew Point Humidity Pressure Visibility Wind Dir Wind Speed Gust Speed Precip Events Conditions
12:15 AM 55.4 °F 35.6 °F 47% 29.97 in 10.0 mi Calm Calm - N/A   Clear
12:35 AM 53.6 °F 35.6 °F 51% 29.96 in 10.0 mi Calm Calm - N/A   Clear
12:55 AM 53.6 °F 35.6 °F 51% 29.96 in 10.0 mi Calm Calm - N/A   Clear
1:15 AM 53.6 °F 35.6 °F 51% 29.95 in 10.0 mi Calm Calm - N/A   Clear
1:35 AM 53.6 °F 35.6 °F 51% 29.95 in 10.0 mi Calm Calm - N/A   Clear
1:55 AM 51.8 °F 35.6 °F 54% 29.95 in 10.0 mi Calm Calm - N/A   Clear
2:15 AM 51.8 °F 35.6 °F 54% 29.96 in 10.0 mi Calm Calm - N/A   Clear
2:35 AM 50.0 °F 35.6 °F 58% 29.96 in 9.0 mi Calm Calm - N/A   Clear
2:55 AM 50.0 °F 35.6 °F 58% 29.95 in 10.0 mi Calm Calm - N/A   Clear
3:15 AM 50.0 °F 35.6 °F 58% 29.95 in 10.0 mi Calm Calm - N/A   Clear
3:35 AM 50.0 °F 35.6 °F 58% 29.95 in 10.0 mi Calm Calm - N/A   Clear
3:55 AM 50.0 °F 35.6 °F 58% 29.95 in 10.0 mi Calm Calm - N/A   Clear
4:15 AM 50.0 °F 35.6 °F 58% 29.95 in 10.0 mi Calm Calm - N/A   Clear
4:35 AM 50.0 °F 35.6 °F 58% 29.95 in 10.0 mi Calm Calm - N/A   Clear
4:55 AM 50.0 °F 35.6 °F 58% 29.95 in 10.0 mi Calm Calm - N/A   Clear
5:15 AM 50.0 °F 35.6 °F 58% 29.95 in 10.0 mi Calm Calm - N/A   Clear
5:35 AM 50.0 °F 35.6 °F 58% 29.95 in 10.0 mi Calm Calm - N/A   Clear
5:55 AM 50.0 °F 35.6 °F 58% 29.95 in 10.0 mi Calm Calm - N/A   Clear
6:15 AM 50.0 °F 35.6 °F 58% 29.96 in 10.0 mi Calm Calm - N/A   Clear
6:35 AM 50.0 °F 35.6 °F 58% 29.96 in 10.0 mi Calm Calm - N/A   Clear
6:55 AM 53.6 °F 35.6 °F 51% 29.96 in 10.0 mi Calm Calm - N/A   Clear
7:15 AM 57.2 °F 37.4 °F 48% 29.97 in 10.0 mi Calm Calm - N/A   Clear
7:35 AM 64.4 °F 39.2 °F 40% 29.97 in 10.0 mi Calm Calm - N/A   Clear
7:55 AM 68.0 °F 41.0 °F 37% 29.98 in 10.0 mi Calm Calm - N/A   Clear
8:15 AM 71.6 °F 37.4 °F 29% 29.98 in 10.0 mi Calm Calm - N/A   Clear
8:35 AM 73.4 °F 33.8 °F 23% 29.98 in 10.0 mi Calm Calm - N/A   Clear
8:55 AM 75.2 °F 32.0 °F 21% 29.98 in 10.0 mi South 3.5 mph - N/A   Clear
9:15 AM 77.0 °F 30.2 °F 18% 29.98 in 10.0 mi Calm Calm - N/A   Clear
9:35 AM 77.0 °F 30.2 °F 18% 29.99 in 10.0 mi SSE 3.5 mph - N/A   Clear
9:55 AM 80.6 °F 32.0 °F 17% 29.99 in 10.0 mi South 3.5 mph - N/A   Clear
10:15 AM 82.4 °F 32.0 °F 16% 29.99 in 10.0 mi WSW 5.8 mph - N/A   Clear
10:35 AM 82.4 °F 32.0 °F 16% 29.98 in 10.0 mi SSE 4.6 mph - N/A   Clear
10:55 AM 82.4 °F 32.0 °F 16% 29.98 in 10.0 mi SSW 3.5 mph - N/A   Clear
11:15 AM 82.4 °F 32.0 °F 16% 29.98 in 10.0 mi SSW 5.8 mph - N/A   Clear
11:35 AM 86.0 °F 32.0 °F 14% 29.98 in 10.0 mi WSW 5.8 mph - N/A   Clear
11:55 AM 84.2 °F 32.0 °F 15% 29.97 in 10.0 mi SW 6.9 mph - N/A   Clear
12:15 PM 86.0 °F 32.0 °F 14% 29.97 in 10.0 mi SW 6.9 mph - N/A   Clear
12:35 PM 86.0 °F 33.8 °F 15% 29.97 in 10.0 mi WSW 6.9 mph - N/A   Clear
12:55 PM 86.0 °F 33.8 °F 15% 29.96 in 10.0 mi WSW 8.1 mph - N/A   Clear
1:15 PM 87.8 °F 35.6 °F 16% 29.96 in 10.0 mi West 8.1 mph - N/A   Clear
1:35 PM 87.8 °F 32.0 °F 14% 29.96 in 10.0 mi West 5.8 mph - N/A   Clear
1:55 PM 89.6 °F 33.8 °F 14% 29.95 in 10.0 mi WSW 8.1 mph - N/A   Clear
2:15 PM 89.6 °F 37.4 °F 16% 29.95 in 10.0 mi SW 9.2 mph - N/A   Clear
2:35 PM 89.6 °F 37.4 °F 16% 29.95 in 10.0 mi WSW 6.9 mph - N/A   Clear
2:55 PM 89.6 °F 35.6 °F 15% 29.95 in 10.0 mi WSW 4.6 mph 17.3 mph N/A   Clear
3:15 PM 87.8 °F 35.6 °F 16% 29.94 in 10.0 mi WSW 10.4 mph - N/A   Clear
3:35 PM 89.6 °F 35.6 °F 15% 29.94 in 10.0 mi WSW 8.1 mph - N/A   Clear
3:55 PM 89.6 °F 35.6 °F 15% 29.94 in 10.0 mi WSW 6.9 mph - N/A   Clear
4:15 PM 89.6 °F 33.8 °F 14% 29.94 in 10.0 mi SW 8.1 mph - N/A   Clear
4:35 PM 86.0 °F 32.0 °F 14% 29.94 in 10.0 mi WSW 6.9 mph - N/A   Clear
4:55 PM 89.6 °F 32.0 °F 13% 29.94 in 10.0 mi West 10.4 mph - N/A   Clear
5:15 PM 87.8 °F 32.0 °F 14% 29.94 in 10.0 mi WSW 8.1 mph - N/A   Clear
5:35 PM 86.0 °F 32.0 °F 14% 29.93 in 10.0 mi West 9.2 mph - N/A   Clear
5:55 PM 86.0 °F 33.8 °F 15% 29.93 in 10.0 mi SW 5.8 mph - N/A   Clear
6:15 PM 84.2 °F 33.8 °F 16% 29.93 in 10.0 mi WSW 8.1 mph - N/A   Clear
6:35 PM 84.2 °F 35.6 °F 18% 29.93 in 10.0 mi West 6.9 mph - N/A   Clear
6:55 PM 84.2 °F 35.6 °F 18% 29.93 in 10.0 mi WSW 4.6 mph - N/A   Clear
7:15 PM 82.4 °F 35.6 °F 19% 29.93 in 10.0 mi WNW 5.8 mph - N/A   Clear
7:35 PM 80.6 °F 35.6 °F 20% 29.93 in 10.0 mi West 4.6 mph - N/A   Clear
7:55 PM 77.0 °F 35.6 °F 22% 29.94 in 10.0 mi West 3.5 mph - N/A   Clear
8:15 PM 73.4 °F 37.4 °F 27% 29.94 in 10.0 mi WNW 3.5 mph - N/A   Clear
8:35 PM 71.6 °F 37.4 °F 29% 29.95 in 10.0 mi Calm Calm - N/A   Clear
8:55 PM 68.0 °F 39.2 °F 35% 29.95 in 10.0 mi NE 3.5 mph - N/A   Clear
9:15 PM 66.2 °F 39.2 °F 37% 29.96 in 10.0 mi NE 3.5 mph - N/A   Clear
9:35 PM 66.2 °F 39.2 °F 37% 29.96 in 10.0 mi Calm Calm - N/A   Clear
9:55 PM 64.4 °F 39.2 °F 40% 29.96 in 10.0 mi Calm Calm - N/A   Clear
10:15 PM 64.4 °F 39.2 °F 40% 29.96 in 10.0 mi Calm Calm - N/A   Clear
10:35 PM 62.6 °F 39.2 °F 42% 29.96 in 10.0 mi NE 3.5 mph - N/A   Clear
10:55 PM 62.6 °F 39.2 °F 42% 29.96 in 10.0 mi Calm Calm - N/A   Clear
11:15 PM 62.6 °F 39.2 °F 42% 29.96 in 10.0 mi Calm Calm - N/A   Clear
11:35 PM 60.8 °F 39.2 °F 45% 29.96 in 10.0 mi Calm Calm - N/A   Clear
11:55 PM 59.0 °F 39.2 °F 48% 29.96 in 10.0 mi Calm Calm - N/A   Clear